Weather History for Amritsar, India

Change the Weather History Date:

Saturday, September 7, 2013

  Actual Average Record
Temperature  
Mean Temperature 85 °F -  
Max Temperature 93 °F 90 °F 96 °F (2004)
Min Temperature 77 °F 74 °F 71 °F (2004)
Cooling Degree Days 20    
Growing Degree Days 35 (Base 50)    
Moisture  
Dew Point 75 °F    
Average Humidity 74    
Maximum Humidity 94    
Minimum Humidity 49    
Precipitation  
Precipitation 0.00 in - - ()
Sea Level Pressure  
Sea Level Pressure 29.69 in    
Wind  
Wind Speed 1 mph ()    
Max Wind Speed 7 mph    
Max Gust Speed 51 mph    
Visibility 2.3 miles    
Events      
Averages and records for this station are not official NWS values.
T = Trace of Precipitation, MM = Missing Value Source: Averaged Metar Reports

Daily Weather History Graph

Daily Weather History Graph

Search for Another Location

Airport:

Trip Planner

Search our weather history database for the weather conditions in past years. The results will help you decide how hot, cold, wet, or windy it might be!

Date:

Astronomy

Sep. 07, 2013 Rise Set
Actual Time 6:09 AM IST 6:47 PM IST
Civil Twilight 5:45 AM IST 7:11 PM IST
Nautical Twilight 5:16 AM IST 7:40 PM IST
Astronomical Twilight 4:46 AM IST 8:10 PM IST
Moon 7:45 AM IST (9/7) 7:41 PM IST (9/7)
Length of Visible Light 13h 26m
Length of Day
12h 37m
Waxing Crescent, 3% of the Moon is Illuminated
Sep 7
Waxing Crescent
Sep 12
First Quarter
Sep 19
Full
Sep 27
Last Quarter
Oct 5
New

Hourly Weather History & Observations

Time (IST) Temp. Heat Index Dew Point Humidity Pressure Visibility Wind Dir Wind Speed Gust Speed Precip Events Conditions
12:30 AM 80.6 °F 87.1 °F 77.0 °F 89% 29.68 in 1.6 mi Calm Calm - N/A   Scattered Clouds
1:00 AM 80.6 °F 87.1 °F 77.0 °F 89% 29.68 in 1.2 mi Calm Calm - N/A   Scattered Clouds
1:30 AM 80.6 °F 86.2 °F 75.2 °F 84% 29.68 in 1.2 mi Calm Calm - N/A   Scattered Clouds
2:30 AM 78.8 °F - 77.0 °F 94% 29.68 in 1.2 mi Calm Calm - N/A   Scattered Clouds
3:00 AM 78.8 °F - 75.2 °F 89% 29.68 in 1.2 mi Calm Calm - N/A   Scattered Clouds
4:00 AM 78.8 °F - 75.2 °F 89% 29.68 in 1.2 mi Calm Calm - N/A   Scattered Clouds
6:00 AM 78.8 °F - 75.2 °F 89% 29.71 in 1.2 mi SSE 3.5 mph - N/A   Scattered Clouds
6:30 AM 78.8 °F - 75.2 °F 89% 29.71 in 1.2 mi Variable 3.5 mph 50.6 mph N/A   Scattered Clouds
7:30 AM 80.6 °F 86.2 °F 75.2 °F 84% 29.74 in 1.2 mi Calm Calm - N/A   Partly Cloudy
8:00 AM 80.6 °F 87.1 °F 77.0 °F 89% 29.74 in 1.2 mi Calm Calm - N/A   Partly Cloudy
8:30 AM 80 °F - 74 °F 78% 29.72 in 1 mi NE 4.6 mph - -   Mist
8:30 AM 78.8 °F - 73.4 °F 83% 29.74 in 1.4 mi NE 4.6 mph - N/A   Scattered Clouds
9:00 AM 78.8 °F - 73.4 °F 83% 29.77 in 1.6 mi ENE 5.8 mph - N/A   Mostly Cloudy
9:30 AM 80.6 °F 85.4 °F 73.4 °F 79% 29.77 in 1.6 mi ENE 4.6 mph - N/A   Mostly Cloudy
11:00 AM 84.2 °F 90.9 °F 73.4 °F 70% 29.77 in 2.8 mi ENE 6.9 mph - N/A   Haze
11:30 AM 87 °F - 72 °F 53% 29.72 in 2 mi 3.5 mph - -   Haze
12:00 PM 87.8 °F 93.8 °F 71.6 °F 58% 29.77 in 2.8 mi East 4.6 mph - N/A   Haze
12:30 PM 89.6 °F 96.2 °F 71.6 °F 55% 29.74 in 2.8 mi Variable 3.5 mph - N/A   Haze
1:30 PM 91.4 °F 98.4 °F 71.6 °F 52% 29.74 in 3.1 mi Variable 2.3 mph - N/A   Haze
2:00 PM 91.4 °F 100.1 °F 73.4 °F 55% 29.71 in 3.1 mi Variable 3.5 mph - N/A   Haze
2:30 PM 90 °F - 73 °F 49% 29.66 in 2 mi 1.2 mph - -   Haze
3:00 PM 91.4 °F 100.1 °F 73.4 °F 55% 29.68 in 3.1 mi ENE 3.5 mph - N/A   Haze
3:30 PM 91.4 °F 100.1 °F 73.4 °F 55% 29.68 in 3.1 mi Variable 3.5 mph - N/A   Haze
4:00 PM 91.4 °F 100.1 °F 73.4 °F 55% 29.68 in 3.1 mi Variable 2.3 mph - N/A   Haze
4:30 PM 91.4 °F 102.5 °F 75.2 °F 59% 29.65 in 3.7 mi West 3.5 mph - N/A   Partly Cloudy
5:00 PM 91.4 °F 100.1 °F 73.4 °F 55% 29.65 in 3.7 mi Variable 2.3 mph - N/A   Partly Cloudy
5:30 PM 90 °F - 74 °F 52% 29.61 in 2 mi Calm Calm - -   Scattered Clouds
5:30 PM 89.6 °F 99.8 °F 75.2 °F 62% 29.65 in 3.7 mi Calm Calm - N/A   Partly Cloudy
6:00 PM 89.6 °F 99.8 °F 75.2 °F 62% 29.65 in 3.7 mi Calm Calm - N/A   Partly Cloudy
6:30 PM 87.8 °F 97.6 °F 75.2 °F 66% 29.65 in 3.7 mi Calm Calm - N/A   Partly Cloudy
7:00 PM 86.0 °F 95.1 °F 75.2 °F 70% 29.65 in 3.1 mi Calm Calm - N/A   Haze
7:30 PM 84.2 °F 92.3 °F 75.2 °F 74% 29.65 in 3.1 mi Calm Calm - N/A   Haze
8:00 PM 84.2 °F 94.1 °F 77.0 °F 79% 29.68 in 2.8 mi Calm Calm - N/A   Haze
8:30 PM 84 °F - 78 °F 78% 29.63 in 2 mi Calm Calm - -   Haze
8:30 PM 84.2 °F 94.1 °F 77.0 °F 79% 29.68 in 2.5 mi Calm Calm - N/A   Haze
9:00 PM 82.4 °F 92.4 °F 78.8 °F 89% 29.68 in 2.5 mi Variable 1.2 mph - N/A   Haze
9:30 PM 82.4 °F 92.4 °F 78.8 °F 89% 29.68 in 2.5 mi Calm Calm - N/A   Haze
10:00 PM 82.4 °F 92.4 °F 78.8 °F 89% 29.68 in 2.5 mi Calm Calm - N/A   Haze
10:30 PM 82.4 °F 92.4 °F 78.8 °F 89% 29.68 in 2.5 mi Calm Calm - N/A   Haze
11:00 PM 82.4 °F 92.4 °F 78.8 °F 89% 29.68 in 2.5 mi Calm Calm - N/A   Haze
11:30 PM 82 °F - 79 °F 87% 29.65 in 2 mi Calm Calm - -   Mist
11:30 PM 82.4 °F 92.4 °F 78.8 °F 89% 29.68 in 2.5 mi Calm Calm - N/A   Scattered Clouds